MSC Lara — HPUD — position and weather

sailwx.info

Track history (hours):
 
Tides and Currents Weather Stations Pressure Air Temp Water Temp Dewpoint Dewpoint Depression Visibility Wind Speed Wind Dir Waves Ship Positions

MSC Lara

Last reported at 2014-Oct-29 04:07 UTC. Time now 2014-Oct-31 19:23 UTC.
Position S 20°07' E 057°24'.

Type: Ship (hazmat cat D). MMSI: 355746000.

Date/timePositionNaut miles runAvg speedWind from/ knotsBaromVisibWave heightAir tempDewpointWater temp
2014-Oct-29 04:07S 20°07' E 057°24'5 9.2
2014-Oct-29 03:34S 20°08' E 057°29'0 0.1
2014-Oct-29 02:33S 20°08' E 057°30'0 0.0
2014-Oct-29 01:33S 20°08' E 057°30'0 0.0
2014-Oct-29 00:33S 20°08' E 057°30'0 0.0
2014-Oct-28 23:33S 20°08' E 057°30'0 0.0
2014-Oct-28 22:33S 20°08' E 057°30'0 0.0
2014-Oct-28 21:33S 20°08' E 057°30'0 0.0
2014-Oct-28 20:33S 20°08' E 057°30'0 0.0
2014-Oct-28 19:33S 20°08' E 057°30'0 0.0
2014-Oct-28 18:33S 20°08' E 057°30'0 0.0
2014-Oct-28 17:33S 20°08' E 057°30'0 0.0
2014-Oct-28 16:33S 20°08' E 057°30'0 0.0
2014-Oct-28 15:33S 20°08' E 057°30'0 0.0
2014-Oct-28 14:33S 20°08' E 057°30'0 0.0
2014-Oct-28 13:33S 20°08' E 057°30'0 0.0
2014-Oct-28 12:33S 20°08' E 057°30'0 0.0
2014-Oct-28 11:33S 20°08' E 057°30'0 0.0
2014-Oct-28 10:33S 20°08' E 057°30'0 0.0
2014-Oct-28 09:33S 20°08' E 057°30'0 0.0
2014-Oct-28 08:33S 20°08' E 057°30'0 0.0
2014-Oct-28 07:33S 20°08' E 057°30'0 0.0
2014-Oct-28 06:33S 20°08' E 057°30'0 0.0
2014-Oct-28 05:33S 20°08' E 057°30'0 0.0
2014-Oct-28 04:32S 20°08' E 057°30'0 0.0
2014-Oct-28 03:29S 20°08' E 057°30'0 0.0
2014-Oct-28 02:32S 20°08' E 057°30'0 0.0
2014-Oct-28 01:32S 20°08' E 057°30'0 0.0
2014-Oct-28 00:32S 20°08' E 057°30'0 0.0
2014-Oct-27 23:32S 20°08' E 057°30'0 0.0
2014-Oct-27 22:32S 20°08' E 057°30'0 0.0
2014-Oct-27 21:32S 20°08' E 057°30'0 0.0
2014-Oct-27 20:32S 20°08' E 057°30'0 0.0
2014-Oct-27 19:32S 20°08' E 057°30'0 0.0
2014-Oct-27 18:32S 20°08' E 057°30'0 0.0
2014-Oct-27 17:32S 20°08' E 057°30'0 0.0
2014-Oct-27 16:32S 20°08' E 057°30'0 0.0
2014-Oct-27 15:32S 20°08' E 057°30'0 0.0
2014-Oct-27 14:32S 20°08' E 057°30'0 0.0
2014-Oct-27 13:32S 20°08' E 057°30'0 0.0
2014-Oct-27 12:32S 20°08' E 057°30'0 0.0
2014-Oct-27 11:32S 20°08' E 057°30'0 0.0
2014-Oct-27 10:32S 20°08' E 057°30'0 0.0
2014-Oct-27 09:32S 20°08' E 057°30'0 0.0
2014-Oct-27 08:32S 20°08' E 057°30'0 0.0
2014-Oct-27 07:32S 20°08' E 057°30'0 0.0
2014-Oct-27 06:32S 20°08' E 057°30'0 0.0
2014-Oct-27 05:32S 20°08' E 057°30'0 0.0
2014-Oct-27 04:32S 20°08' E 057°30'0 0.0
2014-Oct-27 03:32S 20°08' E 057°30'0 0.0
2014-Oct-27 02:32S 20°08' E 057°30'2 2.3
2014-Oct-27 01:33S 20°08' E 057°27'6 5.2
2014-Oct-27 00:29S 20°08' E 057°21'1 1.4
2014-Oct-26 23:30S 20°06' E 057°22'1 1.2
2014-Oct-26 22:29S 20°06' E 057°23'  
2014-Oct-21 14:26S 20°07' E 057°26'4 4.2
2014-Oct-21 13:32S 20°09' E 057°29'0 0.0
2014-Oct-21 12:32S 20°09' E 057°29'0 0.0
2014-Oct-21 11:31S 20°09' E 057°29'0 0.0
2014-Oct-21 10:31S 20°09' E 057°29'0 0.0
2014-Oct-21 09:31S 20°09' E 057°29'0 0.0
2014-Oct-21 08:31S 20°09' E 057°29'0 0.0
2014-Oct-21 07:31S 20°09' E 057°29'0 0.0
2014-Oct-21 06:28S 20°09' E 057°29'0 0.0
2014-Oct-21 05:31S 20°09' E 057°29'0 0.0
2014-Oct-21 04:31S 20°09' E 057°29'0 0.0
2014-Oct-21 03:28S 20°09' E 057°29'0 0.0
2014-Oct-21 02:31S 20°09' E 057°29'0 0.0
2014-Oct-21 01:31S 20°09' E 057°29'0 0.0
2014-Oct-21 00:31S 20°09' E 057°29'0 0.0
2014-Oct-20 23:31S 20°09' E 057°29'0 0.0
2014-Oct-20 22:28S 20°09' E 057°29'0 0.0
2014-Oct-20 21:31S 20°09' E 057°29'0 0.0
2014-Oct-20 20:31S 20°09' E 057°29'0 0.0
2014-Oct-20 19:31S 20°09' E 057°29'0 0.0
2014-Oct-20 18:31S 20°09' E 057°29'0 0.0
2014-Oct-20 17:31S 20°09' E 057°29'0 0.0
2014-Oct-20 16:28S 20°09' E 057°29'0 0.0
2014-Oct-20 15:31S 20°09' E 057°29'0 0.0
2014-Oct-20 14:31S 20°09' E 057°29'0 0.0
2014-Oct-20 13:28S 20°09' E 057°29'0 0.0
2014-Oct-20 12:31S 20°09' E 057°29'0 0.0
2014-Oct-20 11:31S 20°09' E 057°29'0 0.0
2014-Oct-20 10:31S 20°09' E 057°29'0 0.0
2014-Oct-20 09:31S 20°09' E 057°29'0 0.3
2014-Oct-20 08:33S 20°08' E 057°29'3 3.2
2014-Oct-20 07:33S 20°07' E 057°26'2 2.1
2014-Oct-20 06:33S 20°07' E 057°24'3 1.4
2014-Oct-20 04:25S 20°07' E 057°20'1 0.9
2014-Oct-20 03:32S 20°07' E 057°21'1 0.8
2014-Oct-20 02:33S 20°07' E 057°22'3 2.6
2014-Oct-20 01:33S 20°08' E 057°19'  
Track history (hours):
 
Tides and Currents Weather Stations Pressure Air Temp Water Temp Dewpoint Dewpoint Depression Visibility Wind Speed Wind Dir Waves Ship Positions

MSC Lara

Last reported at 2014-Oct-29 04:07 UTC. Time now 2014-Oct-31 19:23 UTC.
Position S 20°07' E 057°24'.

Type: Ship (hazmat cat D). MMSI: 355746000.

Date/timePositionNaut miles runAvg speedWind from/ knotsBaromVisibWave heightAir tempDewpointWater temp
2014-Oct-29 04:07S 20°07' E 057°24'5 9.2
2014-Oct-29 03:34S 20°08' E 057°29'0 0.1
2014-Oct-29 02:33S 20°08' E 057°30'0 0.0
2014-Oct-29 01:33S 20°08' E 057°30'0 0.0
2014-Oct-29 00:33S 20°08' E 057°30'0 0.0
2014-Oct-28 23:33S 20°08' E 057°30'0 0.0
2014-Oct-28 22:33S 20°08' E 057°30'0 0.0
2014-Oct-28 21:33S 20°08' E 057°30'0 0.0
2014-Oct-28 20:33S 20°08' E 057°30'0 0.0
2014-Oct-28 19:33S 20°08' E 057°30'0 0.0
2014-Oct-28 18:33S 20°08' E 057°30'0 0.0
2014-Oct-28 17:33S 20°08' E 057°30'0 0.0
2014-Oct-28 16:33S 20°08' E 057°30'0 0.0
2014-Oct-28 15:33S 20°08' E 057°30'0 0.0
2014-Oct-28 14:33S 20°08' E 057°30'0 0.0
2014-Oct-28 13:33S 20°08' E 057°30'0 0.0
2014-Oct-28 12:33S 20°08' E 057°30'0 0.0
2014-Oct-28 11:33S 20°08' E 057°30'0 0.0
2014-Oct-28 10:33S 20°08' E 057°30'0 0.0
2014-Oct-28 09:33S 20°08' E 057°30'0 0.0
2014-Oct-28 08:33S 20°08' E 057°30'0 0.0
2014-Oct-28 07:33S 20°08' E 057°30'0 0.0
2014-Oct-28 06:33S 20°08' E 057°30'0 0.0
2014-Oct-28 05:33S 20°08' E 057°30'0 0.0
2014-Oct-28 04:32S 20°08' E 057°30'0 0.0
2014-Oct-28 03:29S 20°08' E 057°30'0 0.0
2014-Oct-28 02:32S 20°08' E 057°30'0 0.0
2014-Oct-28 01:32S 20°08' E 057°30'0 0.0
2014-Oct-28 00:32S 20°08' E 057°30'0 0.0
2014-Oct-27 23:32S 20°08' E 057°30'0 0.0
2014-Oct-27 22:32S 20°08' E 057°30'0 0.0
2014-Oct-27 21:32S 20°08' E 057°30'0 0.0
2014-Oct-27 20:32S 20°08' E 057°30'0 0.0
2014-Oct-27 19:32S 20°08' E 057°30'0 0.0
2014-Oct-27 18:32S 20°08' E 057°30'0 0.0
2014-Oct-27 17:32S 20°08' E 057°30'0 0.0
2014-Oct-27 16:32S 20°08' E 057°30'0 0.0
2014-Oct-27 15:32S 20°08' E 057°30'0 0.0
2014-Oct-27 14:32S 20°08' E 057°30'0 0.0
2014-Oct-27 13:32S 20°08' E 057°30'0 0.0
2014-Oct-27 12:32S 20°08' E 057°30'0 0.0
2014-Oct-27 11:32S 20°08' E 057°30'0 0.0
2014-Oct-27 10:32S 20°08' E 057°30'0 0.0
2014-Oct-27 09:32S 20°08' E 057°30'0 0.0
2014-Oct-27 08:32S 20°08' E 057°30'0 0.0
2014-Oct-27 07:32S 20°08' E 057°30'0 0.0
2014-Oct-27 06:32S 20°08' E 057°30'0 0.0
2014-Oct-27 05:32S 20°08' E 057°30'0 0.0
2014-Oct-27 04:32S 20°08' E 057°30'0 0.0
2014-Oct-27 03:32S 20°08' E 057°30'0 0.0
2014-Oct-27 02:32S 20°08' E 057°30'2 2.3
2014-Oct-27 01:33S 20°08' E 057°27'6 5.2
2014-Oct-27 00:29S 20°08' E 057°21'1 1.4
2014-Oct-26 23:30S 20°06' E 057°22'1 1.2
2014-Oct-26 22:29S 20°06' E 057°23'  
2014-Oct-21 14:26S 20°07' E 057°26'4 4.2
2014-Oct-21 13:32S 20°09' E 057°29'0 0.0
2014-Oct-21 12:32S 20°09' E 057°29'0 0.0
2014-Oct-21 11:31S 20°09' E 057°29'0 0.0
2014-Oct-21 10:31S 20°09' E 057°29'0 0.0
2014-Oct-21 09:31S 20°09' E 057°29'0 0.0
2014-Oct-21 08:31S 20°09' E 057°29'0 0.0
2014-Oct-21 07:31S 20°09' E 057°29'0 0.0
2014-Oct-21 06:28S 20°09' E 057°29'0 0.0
2014-Oct-21 05:31S 20°09' E 057°29'0 0.0
2014-Oct-21 04:31S 20°09' E 057°29'0 0.0
2014-Oct-21 03:28S 20°09' E 057°29'0 0.0
2014-Oct-21 02:31S 20°09' E 057°29'0 0.0
2014-Oct-21 01:31S 20°09' E 057°29'0 0.0
2014-Oct-21 00:31S 20°09' E 057°29'0 0.0
2014-Oct-20 23:31S 20°09' E 057°29'0 0.0
2014-Oct-20 22:28S 20°09' E 057°29'0 0.0
2014-Oct-20 21:31S 20°09' E 057°29'0 0.0
2014-Oct-20 20:31S 20°09' E 057°29'0 0.0
2014-Oct-20 19:31S 20°09' E 057°29'0 0.0
2014-Oct-20 18:31S 20°09' E 057°29'0 0.0
2014-Oct-20 17:31S 20°09' E 057°29'0 0.0
2014-Oct-20 16:28S 20°09' E 057°29'0 0.0
2014-Oct-20 15:31S 20°09' E 057°29'0 0.0
2014-Oct-20 14:31S 20°09' E 057°29'0 0.0
2014-Oct-20 13:28S 20°09' E 057°29'0 0.0
2014-Oct-20 12:31S 20°09' E 057°29'0 0.0
2014-Oct-20 11:31S 20°09' E 057°29'0 0.0
2014-Oct-20 10:31S 20°09' E 057°29'0 0.0
2014-Oct-20 09:31S 20°09' E 057°29'0 0.3
2014-Oct-20 08:33S 20°08' E 057°29'3 3.2
2014-Oct-20 07:33S 20°07' E 057°26'2 2.1
2014-Oct-20 06:33S 20°07' E 057°24'3 1.4
2014-Oct-20 04:25S 20°07' E 057°20'1 0.9
2014-Oct-20 03:32S 20°07' E 057°21'1 0.8
2014-Oct-20 02:33S 20°07' E 057°22'3 2.6
2014-Oct-20 01:33S 20°08' E 057°19'  

Dump ship's entire track history